Content
SEND FEEDBACK

Daily
Averages
Monthly
Summary
United States of America

MARBLEHEAD, OHIO


Home > North America > United States > Ohio
Elevation: 630 feet     Latitude: 41 30N     Longitude: 082 42W

WEATHER
 
SELECT A DAY
Number of Records: 180,130;   Date Range: 10/8/98 - 7/7/14
 
SHARE

PRINT THIS DATA

[ ← Previous Day ]
WEATHER ALMANAC - MAY 1, 2013
[ Next Day → ]
[ °C ]   °F
Weather ElementAverageHighLow
Temperature70.3 °F80.1 °F (3:53 pm)57 °F (4:53 am)
Dewpoint52.8 °F57 °F (2:53 pm)50 °F (4:53 am)
Humidity55.4 %77 % (4:53 am)38 % (5:53 pm)
Barometer30.21 in30.26 in (10:53 am)30.12 in (2:53 am)
Wind Speed8.5 mph15 mph (9:53 am)
Wind Gust16.1 mph (1:53 pm)
Weather ElementAverage
Visibility10 mi
Wind DirectionSSE (154 °)

Weather ElementTotal
Precipitation---
Cooling Degree Days3.6 (Base 65)
Growing Degree Days18.6 (Base 50)
Averaged from 20 records on May 1, 2013
WEATHER CONDITIONS BREAKOUT
WIND DIRECTION BREAKOUT
WEATHER BY HOUR - MAY 1, 2013
[ °C ]   °F
Local TimeTemperatureDewpointHumidityBarometerVisibilityWind DirectionWind SpeedGust SpeedPrecipitationEventsConditions
2:53 AM61.0 °F51.1 °F70 %30.12 in10.0 miSouth (170°)11.5 mphClear
3:53 AM60.1 °F51.1 °F72 %30.14 in10.0 miSSE (160°)9.2 mphClear
4:53 AM57.0 °F50.0 °F77 %30.15 in10.0 miSSE (160°)6.9 mphClear
6:53 AM57.0 °F50.0 °F77 %30.20 in10.0 miSSE (160°)9.2 mphClear
7:53 AM59.0 °F50.0 °F72 %30.22 in10.0 miSSE (160°)9.2 mphClear
9:53 AM66.0 °F53.1 °F63 %30.25 in10.0 miSouth (170°)15.0 mphClear
10:53 AM68.0 °F54.0 °F61 %30.26 in10.0 miSouth (180°)12.7 mphClear
11:53 AM71.1 °F55.9 °F59 %30.24 in10.0 miSouth (180°)9.2 mphClear
12:53 PM75.0 °F55.9 °F51 %30.22 in10.0 miSSE (150°)9.2 mphClear
1:53 PM77.0 °F55.0 °F47 %30.22 in10.0 miSouth (180°)10.4 mph16.1 mphClear
2:53 PM79.0 °F57.0 °F47 %30.22 in10.0 miSouth (170°)10.4 mphClear
3:53 PM80.1 °F55.0 °F42 %30.21 in10.0 miSE (140°)8.1 mphClear
4:53 PM80.1 °F54.0 °F40 %30.21 in10.0 miSSE (160°)4.6 mphClear
5:53 PM80.1 °F52.0 °F38 %30.21 in10.0 miSE (140°)4.6 mphClear
6:53 PM79.0 °F53.1 °F40 %30.21 in10.0 miSSE (160°)9.2 mphClear
7:53 PM75.9 °F53.1 °F45 %30.22 in10.0 miESE (120°)6.9 mphClear
8:53 PM73.0 °F52.0 °F48 %30.23 in10.0 miSE (130°)5.8 mphClear
9:53 PM71.1 °F52.0 °F51 %30.24 in10.0 miSE (130°)5.8 mphClear
10:53 PM69.1 °F51.1 °F53 %30.25 in10.0 miSE (130°)5.8 mphClear
11:53 PM66.9 °F50.0 °F54 %30.24 in10.0 miSE (130°)6.9 mphClear
Hourly data recorded from KLPR, located miles away from Marblehead, Ohio







STORIES FROM OUR PARTNERS